Simultaneous Nadir Overpasses (SNOs) Predictions

Prediction of SNOs between AQUA and METOP-B Satellite Orbit:

Table of predicted SNOs for the next 14.0 days since TLE Epoch: 7/30/2022
Index Date (AQUA) Time (AQUA) Lat,Lon (AQUA) SZA (AQUA ) Date (METOP-B) Time (METOP-B) Lat,Lon (METOP-B) SZA (METOP-B ) Distance(km) Time Diff (sec)
1 08/01/2022 07:06:56 -74.04,-112.13 123.91 08/01/2022 07:06:31 -74.02,-112.06 123.93 3.25 25
2 08/01/2022 07:56:24 74.09, 55.40 56.15 08/01/2022 07:57:09 74.10, 55.48 56.16 2.91 45
3 08/04/2022 01:51:06 73.97, 147.00 56.73 08/04/2022 01:50:11 73.99, 146.95 56.76 2.23 55
4 08/04/2022 02:40:33 -74.07, -45.57 123.16 08/04/2022 02:40:51 -74.08, -45.50 123.15 2.80 18
5 08/04/2022 03:30:12 74.68, 120.58 57.53 08/04/2022 03:31:18 74.70, 123.45 57.43 84.25 66
6 08/06/2022 20:35:10 -73.70, 46.58 122.81 08/06/2022 20:34:00 -73.62, 45.15 122.82 45.80 70
7 08/06/2022 21:24:43 74.02,-146.49 57.54 08/06/2022 21:24:31 74.05,-146.49 57.58 3.31 12
8 08/06/2022 22:14:10 -74.10, 20.95 122.36 08/06/2022 22:15:12 -74.09, 20.94 122.38 1.72 62
9 08/09/2022 16:08:51 -74.01, 112.51 121.68 08/09/2022 16:08:12 -74.02, 112.52 121.67 1.28 39
10 08/09/2022 16:58:19 74.07, -80.01 58.40 08/09/2022 16:58:51 74.05, -80.07 58.38 3.13 32
11 08/12/2022 10:53:01 74.00, 11.51 59.12 08/12/2022 10:51:52 73.98, 11.50 59.12 2.05 69
12 08/12/2022 11:42:28 -74.07, 178.97 120.79 08/12/2022 11:42:32 -74.07, 179.05 120.79 2.45 4



Historial Predications of SNOs between AQUA and METOP-B
